Location: Oberwangen
(47.4286°N, 8.9679°E)
Time: 11:23:42
(UTC+00:00)

Cosmos 1816 Rocket - Pass Details

Date: 19 October 2021
Orbit: 952 x 998 km, 82.9° (Epoch: 08 December)

Event Time Altitude Azimuth Distance (km) Brightness Sun altitude
Rises 21:29:27 0° 338° (NNW) 3,645 8.2 -47.4°
Reaches altitude 10° 21:32:41 10° 322° (NW) 2,699 7.3 -47.7°
Enters shadow 21:33:55 14° 312° (NW) 2,423 7.0 -47.8°
